Regional Weather Roundup
Issued by NWS Portland, ME

Home | Current Version | Previous Version | Text Only | Print | Product List | Glossary On
Versions: 1 2 3 4 5 6 7 8 9 10 11 12 13 14 15 16 17 18 19 20 21 22 23 24 25 26 27 28 29 30 31 32 33 34 35 36 37 38 39 40 41 42 43 44 45 46 47 48 49 50
000
ASUS41 KGYX 210410
RWRGYX
WEATHER ROUNDUP FOR MAINE AND NEW HAMPSHIRE
NATIONAL WEATHER SERVICE GRAY ME
1200 AM EDT SUN SEP 21 2014

MEZ002-005-006-010-012-015-018-020-021-024-026-027-029-210500-
MAINE

CITY           SKY/WX    TMP DP  RH WIND       PRES   REMARKS
PORTLAND       PTCLDY    60  53  77 S7        30.07F
SANFORD        CLEAR     54  46  76 CALM      30.08F
BAR HARBOR     CLEAR     59  57  94 S13G21    30.07F
WISCASSET      CLEAR     63  54  72 SW10G21   30.07F
ROCKLAND       CLEAR     61  55  82 SW10      30.06F
FRYEBURG       CLOUDY    59  54  83 S5        30.05F
LEWISTONAUBURN MOCLDY    59  54  82 S10       30.05F
AUGUSTA        CLEAR     57  54  89 S7        30.05F
WATERVILLE     CLEAR     57  52  82 S5        29.99S
BANGOR         CLEAR     57  53  86 S13       30.03F
GREENVILLE       N/A     56  53  90 VRB6      29.99R
MILLINOCKET    CLOUDY    56  52  86 VRB6      30.01S
HOULTON        CLOUDY    56  51  84 S8G20     30.00R
PRESQUE ISLE   CLOUDY    55  48  76 S12       29.94F
FRENCHVILLE    CLOUDY    51  50  96 S7        29.90F
CARIBOU        CLOUDY    55  51  86 S9        29.93F
$$

NHZ002-005-008-009-011-012-014-210500-
NEW HAMPSHIRE

CITY           SKY/WX    TMP DP  RH WIND       PRES   REMARKS
PORTSMOUTH     PTCLDY    57  52  84 S6        30.07F
ROCHESTER      CLEAR     57  52  83 CALM      30.07F
NASHUA         CLEAR     60  55  83 CALM      30.10S
MANCHESTER     CLEAR     60  52  74 S9        30.07S
CONCORD        CLEAR     55  53  93 SE6       30.08S
LACONIA        CLEAR     59  52  77 S7        30.05F
PLYMOUTH       CLOUDY    52  52 100 CALM      30.06F
BERLIN         MOCLDY    53  51  93 S5        30.00S
WHITEFIELD     CLOUDY    64  53  67 CALM      30.01S
JAFFREY        CLOUDY    58  53  84 SW6       30.10F
LEBANON        PTCLDY    62  54  74 S15       30.03R
MT WASHINGTON  FOG       43  43 100 W41G49      N/A  VSB 0
$$

VTZ005-007-008-210500-
VERMONT

CITY           SKY/WX    TMP DP  RH WIND       PRES   REMARKS
ST JOHNSBURY     N/A     62  55  77 MISG      29.98F
MONTPELIER     CLOUDY    59  56  89 S6        30.03S
BURLINGTON     PTCLDY    67  56  67 S18G29    29.93F
$$

MAZ007-012-024-CTZ003-RIZ002-NYZ038-NYZ072-210500-
SOUTHERN NEW ENGLAND AND NY

CITY           SKY/WX    TMP DP  RH WIND       PRES   REMARKS
BOSTON         PTCLDY    62  56  80 S10       30.10F
WORCESTER      CLEAR     58  55  90 SW13      30.11F
NANTUCKET      MOCLDY    63  60  90 SE9       30.12F
PROVIDENCE     MOCLDY    60  56  86 CALM      30.11F
HARTFORD       MOCLDY    61  56  83 S3        30.08F
ALBANY         CLEAR     65  56  72 S16G23    30.02S
NEW YORK CITY  CLOUDY    70  63  78 S5        30.06S
$$

ANZ081-ANZ082-ANZ150-NHZ014-MEZ023>029-210500-
COASTAL MARINE OBSERVATIONS

STATION/POSITION TIME  TEMP    WIND        PRES    WAVE
                       AIR SEA DIR/SP/G            HT/PER
                 (UTC) (F)     (DEG/KT/KT) (MB)    (FT/S)
MATINICUS ROCK   0400          200/ 24/ 26 1018.0F
PORTLAND WX BUOY 0350   61 58  190/ 16/ 17 1017.8F   5/ 6
WELLS            0300   61 57  210/  7/  8 1018.1F
ISLE OF SHOALS   0400   61     210/ 13/ 16 1018.1F
JEFFREYS LEDGE   0321      60                N/A     3/ 5
CASHES LEDGE BUO 0350   63 61              1018.9F   4/ 6
$$

.............KEY..............
   WCI - WIND CHILL
   TC  - TEMPERATURE IN CELSIUS
   VSB - VISIBILITY IN MILES
   HX  - HEAT INDEX
   FAIR- INDICATES FEW OR NO CLOUDS BELOW 12,000 FT, WITH NO
         SIGNIFICANT WEATHER AND/OR OBSTRUCTIONS TO VISIBILITY.




USA.gov is the U.S. government's official web portal to all federal, state and local government web resources and services.